Satellite: NOAA-17
Catalog number: 27453
Epoch time:      11006.31471222
Element set:     135
Inclination:      098.4039 deg
RA of node:       053.2812 deg
Eccentricity:    0.0010745
Arg of perigee:   262.9894 deg
Mean anomaly:     097.0094 deg
Mean motion:   14.24224986 rev/day
Decay rate:        9.8e-07 rev/day^2
Epoch rev:           44361
Checksum:              296

Satellite: NOAA-18
Catalog number: 28654
Epoch time:      11006.26209639
Element set:     620
Inclination:      098.9768 deg
RA of node:       317.1907 deg
Eccentricity:    0.0014073
Arg of perigee:   198.4678 deg
Mean anomaly:     161.6002 deg
Mean motion:   14.11426506 rev/day
Decay rate:       4.54e-06 rev/day^2
Epoch rev:           29008
Checksum:              308

Satellite: NOAA-19
Catalog number: 33591
Epoch time:      11006.29456839
Element set:     815
Inclination:      098.8124 deg
RA of node:       309.3091 deg
Eccentricity:    0.0014993
Arg of perigee:   075.1702 deg
Mean anomaly:     285.1137 deg
Mean motion:   14.11118194 rev/day
Decay rate:       -2.6e-07 rev/day^2
Epoch rev:            9855
Checksum:              309

/EX
SB KEPS @ AMSAT  $ORB11006.M
Orbital Elements  11006.MISC

HR AMSAT ORBITAL ELEMENTS FOR MANNED AND MISCELLANEOUS SATELLITES
FROM WA5QGD FORT WORTH,TX January 6, 2011
Send Subscribe/unsubscribe to KEPS at http://www.amsat.org/mailman/listinfo/kep
BID: ORB11006.M
TO ALL RADIO AMATEURS BT

Satellite: HUBBLE
Catalog number: 20580
Epoch time:      11004.24385423
Element set:     696
Inclination:      028.4705 deg
RA of node:       007.1641 deg
Eccentricity:    0.0003638
Arg of perigee:   177.7199 deg
Mean anomaly:     182.3474 deg
Mean motion:   15.01131757 rev/day
Decay rate:       5.55e-06 rev/day^2
Epoch rev:           93499
Checksum:              297

Satellite: ISS
Catalog number: 25544
Epoch time:      11007.07083667
Element set:     593
Inclination:      051.6474 deg
RA of node:       266.8629 deg
Eccentricity:    0.0005221
Arg of perigee:   110.9511 deg
Mean anomaly:     032.4565 deg
Mean motion:   15.72554949 rev/day
Decay rate:     1.2324e-04 rev/day^2
Epoch rev:           69554
Checksum:              301

Satellite: CO-58
Catalog number: 28895
Epoch time:      11006.19307638
Element set:     769
Inclination:      097.9896 deg
RA of node:       248.6218 deg
Eccentricity:    0.0018110
Arg of perigee:   012.5354 deg
Mean anomaly:     347.6279 deg
Mean motion:   14.59990489 rev/day
Decay rate:       2.09e-06 rev/day^2
Epoch rev:           27660
Checksum:              360

Satellite: FALCON
Catalog number: 30776
Epoch time:      11006.89934066
Element set:     994
Inclination:      035.4335 deg
RA of node:       247.1817 deg
Eccentricity:    0.0000229
Arg of perigee:   227.1830 deg
Mean anomaly:     132.8867 deg
Mean motion:   15.04050258 rev/day
Decay rate:       8.69e-06 rev/day^2
Epoch rev:           21074
Checksum:              298

Satellite: MAST
Catalog number: 31126
Epoch time:      11005.59503955
Element set:    0053
Inclination:      097.9146 deg
RA of node:       041.8698 deg
Eccentricity:    0.0093967
Arg of perigee:   317.2723 deg
Mean anomaly:     042.1194 deg
Mean motion:   14.53660989 rev/day
Decay rate:        7.0e-07 rev/day^2
Epoch rev:           19746
Checksum:              316

Satellite: CAPE1
Catalog number: 31130
Epoch time:      11005.63450173
Element set:    0074
Inclination:      097.9178 deg
RA of node:       038.9350 deg
Eccentricity:    0.0101728
Arg of perigee:   326.6647 deg
Mean anomaly:     032.8164 deg
Mean motion:   14.52276071 rev/day
Decay rate:       3.35e-06 rev/day^2
Epoch rev:           19704
Checksum:              278

Satellite: COMPASS
Catalog number: 32787
Epoch time:      11006.73618486
Element set:     875
Inclination:      097.8701 deg
RA of node:       073.4341 deg
Eccentricity:    0.0015658
Arg of perigee:   346.4930 deg
Mean anomaly:     013.5867 deg
Mean motion:   14.82100729 rev/day
Decay rate:       3.36e-06 rev/day^2
Epoch rev:           14564
Checksum:              311

Satellite: AAUSAT2
Catalog number: 32788
Epoch time:      11005.70605469
Element set:    0866
Inclination:      097.8710 deg
RA of node:       072.5974 deg
Eccentricity:    0.0015057
Arg of perigee:   351.6944 deg
Mean anomaly:     008.3974 deg
Mean motion:   14.82261312 rev/day
Decay rate:       6.00e-06 rev/day^2
Epoch rev:           14550
Checksum:              301

Satellite: DO-64
Catalog number: 32789
Epoch time:      11005.68743760
Element set:    0881
Inclination:      097.8797 deg
RA of node:       073.3126 deg
Eccentricity:    0.0015194
Arg of perigee:   349.0493 deg
Mean anomaly:     011.0398 deg
Mean motion:   14.82530770 rev/day
Decay rate:      1.174e-05 rev/day^2
Epoch rev:           14550
Checksum:              321

Satellite: CO-66
Catalog number: 32791
Epoch time:      11006.79007790
Element set:     866
Inclination:      097.8712 deg
RA of node:       073.4690 deg
Eccentricity:    0.0015741
Arg of perigee:   345.2512 deg
Mean anomaly:     014.8226 deg
Mean motion:   14.81846708 rev/day
Decay rate:      -1.59e-06 rev/day^2
Epoch rev:           14560
Checksum:              316

